Date,TemperatureHighF,TemperatureAvgF,TemperatureLowF,DewpointHighF,DewpointAvgF,DewpointLowF,HumidityHigh,HumidityAvg,HumidityLow,PressureMaxIn,PressureMinIn,WindSpeedMaxMPH,WindSpeedAvgMPH,GustSpeedMaxMPH,PrecipitationSumIn
2013-4-1,78.0,66.7,60.6,-99.9,-99.9,-99.9,0,0,100,19.99,19.99,13,4,18,0.00
2013-4-2,60.4,57.7,52.2,-99.9,-99.9,-99.9,0,0,100,19.99,19.98,22,6,29,0.00
2013-4-3,66.5,56.6,50.6,-99.9,-99.9,-99.9,0,0,100,19.99,19.99,28,6,34,0.00
2013-4-4,64.9,56.9,50.9,-99.9,-99.9,-99.9,0,0,100,19.99,19.99,30,8,33,0.00
2013-4-5,60.8,51.6,44.7,-99.9,-99.9,-99.9,0,0,100,19.99,19.99,16,5,20,0.00
2013-4-6,67.6,57.0,47.8,-99.9,-99.9,-99.9,0,0,100,19.99,19.99,28,6,31,0.00
2013-4-7,70.5,62.4,54.5,-99.9,-99.9,-99.9,0,0,100,19.99,19.99,17,6,23,0.00
2013-4-8,75.1,66.0,55.0,-99.9,-99.9,-99.9,0,0,100,19.99,19.99,14,4,19,0.00
2013-4-9,79.6,69.8,60.4,-99.9,-99.9,-99.9,0,0,100,19.98,19.98,11,3,18,0.00
2013-4-10,78.0,69.5,61.1,-99.9,-99.9,-99.9,0,0,100,19.99,19.98,14,4,20,0.00
2013-4-11,75.3,70.0,63.7,-99.9,-99.9,-99.9,0,0,100,19.99,19.99,17,4,22,0.00
2013-4-12,77.9,70.9,68.0,-99.9,-99.9,-99.9,0,0,100,19.99,19.98,20,6,25,0.00
2013-4-13,73.6,65.1,57.6,-99.9,-99.9,-99.9,0,0,100,19.99,19.98,16,4,21,0.00
2013-4-14,71.0,64.1,54.7,-99.9,-99.9,-99.9,0,0,100,19.99,19.99,18,4,26,0.00
2013-4-15,72.5,67.0,63.3,-99.9,-99.9,-99.9,0,0,100,19.99,19.98,18,5,28,0.00
2013-4-16,75.8,68.1,60.3,-99.9,-99.9,-99.9,0,0,100,19.98,19.98,17,4,21,0.00
2013-4-17,76.6,69.1,60.7,-99.9,-99.9,-99.9,0,0,100,19.99,19.99,19,4,20,0.00
2013-4-18,78.0,72.1,65.4,-99.9,-99.9,-99.9,0,0,100,19.99,19.98,17,5,25,0.00
2013-4-19,78.2,72.5,68.4,-99.9,-99.9,-99.9,0,0,100,19.99,19.98,20,6,27,0.00
2013-4-20,69.5,56.5,48.0,-99.9,-99.9,-99.9,0,0,100,19.99,19.98,18,5,33,0.00
2013-4-21,66.5,56.9,47.1,-99.9,-99.9,-99.9,0,0,100,19.99,19.98,28,9,44,0.00
2013-4-22,70.5,58.3,49.0,-99.9,-99.9,-99.9,0,0,100,19.98,19.98,19,7,32,0.00
2013-4-23,65.9,58.2,52.5,-99.9,-99.9,-99.9,0,0,100,19.99,19.99,13,5,16,0.00
2013-4-24,74.8,64.1,50.7,-99.9,-99.9,-99.9,0,0,100,19.99,19.99,13,3,18,0.00
2013-4-25,83.3,70.2,64.2,-99.9,-99.9,-99.9,0,0,100,19.99,19.99,18,3,20,0.00
2013-4-26,71.4,65.1,59.0,-99.9,-99.9,-99.9,0,0,100,19.99,19.98,22,7,28,0.00
2013-4-27,72.3,64.9,57.1,-99.9,-99.9,-99.9,0,0,100,19.99,19.99,18,5,24,0.00
2013-4-28,73.1,68.4,63.0,-99.9,-99.9,-99.9,0,0,100,19.99,19.98,17,6,21,0.00
2013-4-29,79.8,70.0,63.8,-99.9,-99.9,-99.9,0,0,100,19.98,19.98,12,4,21,0.00
2013-4-30,75.6,68.0,64.4,-99.9,-99.9,-99.9,0,0,100,19.99,19.99,19,4,24,0.00